User: anonymous   Login
Location: Unspecified
(17.6330°N, 0.0000°E)
Time: 09:06:53
(UTC+00:00)
Language:

A-11 Canister half - Orbit

View from above orbital plane
View from above orbital plane
View from above satellite
View from above satellite

Ground track
Ground track

The orbit data is extracted from the following two-line orbital elements,

1    51U 60009C   19287.32387573 -.00000167 +00000-0 -79216-3 0  9990
2    51 047.2153 031.9704 0108104 149.0491 211.6725 12.18276554633968
Epoch (UTC): 14 October 2019 07:46:22
Eccentricity: 0.0108104
inclination: 47.2153°
perigee height: 1514 km
apogee height: 1686 km
right ascension of ascending node: 31.9704°
argument of perigee: 149.0491°
revolutions per day: 12.18276554
mean anomaly at epoch: 211.6725°
orbit number at epoch: 63396

The dashed part of the orbit path shows where the satellite is in the earth's shadow,  

DLR